Weather History for Sedalia, MO

Change the Weather History Date:

Saturday, June 22, 2013

  Actual Average Record
Temperature  
Mean Temperature 83 °F 77 °F  
Max Temperature 92 °F 87 °F 97 °F (1956)
Min Temperature 73 °F 67 °F 44 °F (1992)
Degree Days  
Heating Degree Days 0 0  
Month to date heating degree days 9 4  
Since 1 June heating degree days 9 4  
Since 1 July heating degree days 4745 4569  
Cooling Degree Days 18 12  
Month to date cooling degree days 186 204  
Year to date cooling degree days 334 343  
Since 1 June cooling degree days 186 204  
Growing Degree Days 32 (Base 50)    
Moisture  
Dew Point 72 °F    
Average Humidity 70    
Maximum Humidity 87    
Minimum Humidity 52    
Precipitation  
Precipitation 0.00 in 0.15 in 3.39 in (1948)
Month to date precipitation 2.20 3.99  
Year to date precipitation 25.20 19.14  
Sea Level Pressure  
Sea Level Pressure 29.98 in    
Wind  
Wind Speed 12 mph (South)    
Max Wind Speed 20 mph    
Max Gust Speed 24 mph    
Visibility 10 miles    
Events      
T = Trace of Precipitation, MM = Missing Value Source: NWS Daily Summary

Daily Weather History Graph

Daily Weather History Graph

Search for Another Location

Airport:

Trip Planner

Search our weather history database for the weather conditions in past years. The results will help you decide how hot, cold, wet, or windy it might be!

Date:

Astronomy

Jun. 22, 2013 Rise Set
Actual Time 5:48 AM CDT 8:41 PM CDT
Civil Twilight 5:16 AM CDT 9:13 PM CDT
Nautical Twilight 4:36 AM CDT 9:53 PM CDT
Astronomical Twilight 3:50 AM CDT 10:39 PM CDT
Moon 7:57 PM CDT (6/22) 5:01 AM CDT (6/22)
Length of Visible Light 15h 56m
Length of Day
14h 52m
Waxing Gibbous, 99% of the Moon is Illuminated
Jun 22
Waxing Gibbous
Jun 23
Full
Jun 29
Last Quarter
Jul 8
New
Jul 15
First Quarter

Hourly Weather History & Observations

Time (CDT) Temp. Heat Index Dew Point Humidity Pressure Visibility Wind Dir Wind Speed Gust Speed Precip Events Conditions
12:53 AM 79.0 °F - 72.0 °F 79% 29.98 in 10.0 mi South 9.2 mph - N/A   Clear
1:53 AM 79.0 °F - 72.0 °F 79% 29.97 in 10.0 mi SSW 9.2 mph - N/A   Clear
2:53 AM 75.9 °F - 71.1 °F 85% 29.97 in 10.0 mi South 8.1 mph - N/A   Clear
3:53 AM 75.0 °F - 71.1 °F 87% 29.96 in 10.0 mi South 9.2 mph - N/A   Clear
4:53 AM 73.0 °F - 70.0 °F 90% 29.98 in 10.0 mi South 6.9 mph - N/A   Clear
5:53 AM 73.0 °F - 70.0 °F 90% 30.00 in 9.0 mi SSE 8.1 mph - N/A   Clear
6:53 AM 75.0 °F - 71.1 °F 87% 30.01 in 9.0 mi SE 8.1 mph - N/A   Clear
7:53 AM 78.1 °F - 72.0 °F 81% 30.01 in 10.0 mi South 13.8 mph - N/A   Clear
8:53 AM 82.0 °F 86.7 °F 72.0 °F 71% 30.01 in 10.0 mi SSW 13.8 mph - N/A   Clear
9:53 AM 84.0 °F 89.6 °F 72.0 °F 67% 30.02 in 10.0 mi SSW 13.8 mph - N/A   Clear
10:53 AM 86.0 °F 92.2 °F 72.0 °F 63% 30.01 in 10.0 mi SSW 17.3 mph - N/A   Clear
11:53 AM 88.0 °F 95.6 °F 73.0 °F 61% 30.02 in 10.0 mi South 13.8 mph - N/A   Clear
12:53 PM 89.1 °F 97.0 °F 73.0 °F 59% 30.03 in 10.0 mi SSW 13.8 mph - N/A   Clear
1:53 PM 91.0 °F 101.6 °F 75.0 °F 59% 30.01 in 10.0 mi South 13.8 mph - N/A   Clear
2:53 PM 91.0 °F 100.4 °F 73.9 °F 57% 29.98 in 10.0 mi South 15.0 mph - N/A   Clear
3:53 PM 91.0 °F 99.3 °F 73.0 °F 55% 29.95 in 10.0 mi SSW 10.4 mph - N/A   Clear
4:53 PM 91.0 °F 97.6 °F 71.1 °F 52% 29.93 in 10.0 mi SSW 13.8 mph - N/A   Clear
5:53 PM 90.0 °F 97.9 °F 73.0 °F 57% 29.91 in 10.0 mi South 15.0 mph 21.9 mph N/A   Partly Cloudy
6:53 PM 88.0 °F 95.6 °F 73.0 °F 61% 29.91 in 10.0 mi South 12.7 mph - N/A   Partly Cloudy
7:53 PM 86.0 °F 93.0 °F 73.0 °F 65% 29.92 in 10.0 mi SSE 8.1 mph - N/A   Clear
8:53 PM 82.9 °F 88.8 °F 73.0 °F 72% 29.93 in 10.0 mi SSE 6.9 mph - N/A   Clear
9:53 PM 82.0 °F 87.4 °F 73.0 °F 74% 29.96 in 10.0 mi SE 11.5 mph - N/A   Clear
10:53 PM 80.1 °F 83.6 °F 71.1 °F 74% 29.97 in 10.0 mi SSE 15.0 mph 20.7 mph N/A   Clear
11:53 PM 78.1 °F - 70.0 °F 76% 29.97 in 10.0 mi SSE 15.0 mph - N/A   Clear